TimeCDT,TemperatureF,Dew PointF,Humidity,Sea Level PressureIn,VisibilityMPH,Wind Direction,Wind SpeedMPH,Gust SpeedMPH,PrecipitationIn,Events,Conditions,WindDirDegrees,DateUTC
12:52 AM,57.9,55.0,90,29.91,7.0,East,6.9,-,N/A,,Overcast,90,2013-06-06 05:52:00
1:52 AM,57.0,55.0,93,29.91,2.5,Calm,Calm,-,0.07,Rain,Heavy Rain,0,2013-06-06 06:52:00
2:04 AM,57.2,55.4,94,29.90,4.0,NE,3.5,-,0.03,Rain,Rain,40,2013-06-06 07:04:00
2:52 AM,57.0,55.0,93,29.89,5.0,Calm,Calm,-,0.07,Rain,Light Rain,0,2013-06-06 07:52:00
3:38 AM,57.2,55.4,94,29.88,6.0,Calm,Calm,-,0.02,Rain,Light Rain,0,2013-06-06 08:38:00
3:52 AM,57.0,55.0,93,29.88,4.0,North,3.5,-,0.03,Rain,Light Rain,10,2013-06-06 08:52:00
4:15 AM,55.4,53.6,94,29.88,2.0,Calm,Calm,-,0.06,Rain,Heavy Rain,0,2013-06-06 09:15:00
4:41 AM,57.2,55.4,94,29.88,3.0,Calm,Calm,-,0.16,Rain,Rain,0,2013-06-06 09:41:00
4:52 AM,57.0,55.0,93,29.89,3.0,Calm,Calm,-,0.18,Rain,Rain,0,2013-06-06 09:52:00
4:56 AM,57.2,55.4,94,29.89,2.5,Calm,Calm,-,0.01,Rain,Rain,0,2013-06-06 09:56:00
5:12 AM,57.2,53.6,88,29.89,4.0,Calm,Calm,-,0.05,Rain,Light Rain,0,2013-06-06 10:12:00
5:27 AM,55.4,53.6,94,29.88,4.0,East,6.9,-,0.07,Rain,Rain,80,2013-06-06 10:27:00
5:38 AM,55.4,55.4,100,29.87,2.0,East,5.8,-,0.16,Rain,Heavy Rain,90,2013-06-06 10:38:00
5:44 AM,55.4,55.4,100,29.88,3.0,ENE,3.5,-,0.18,Rain,Light Rain,60,2013-06-06 10:44:00
5:52 AM,55.9,54.0,93,29.88,6.0,ENE,5.8,-,0.18,Rain,Light Rain,70,2013-06-06 10:52:00
6:44 AM,55.4,53.6,94,29.89,5.0,Calm,Calm,-,0.05,,Overcast,0,2013-06-06 11:44:00
6:52 AM,57.0,54.0,89,29.89,5.0,Calm,Calm,-,0.05,,Overcast,0,2013-06-06 11:52:00
7:52 AM,57.0,55.0,93,29.90,5.0,Calm,Calm,-,N/A,,Overcast,0,2013-06-06 12:52:00
7:59 AM,57.2,55.4,94,29.90,5.0,Calm,Calm,-,N/A,,Overcast,0,2013-06-06 12:59:00
8:21 AM,57.2,55.4,94,29.89,5.0,Calm,Calm,-,N/A,,Overcast,0,2013-06-06 13:21:00
8:52 AM,57.9,55.0,90,29.90,-9999.0,East,4.6,-,N/A,,Unknown,80,2013-06-06 13:52:00
9:25 AM,59.0,55.4,88,29.91,4.0,Calm,Calm,-,N/A,,Overcast,0,2013-06-06 14:25:00
9:41 AM,59.0,55.4,88,29.90,2.5,Calm,Calm,-,N/A,,Overcast,0,2013-06-06 14:41:00
9:52 AM,59.0,55.9,90,29.90,2.0,ENE,3.5,-,N/A,,Overcast,70,2013-06-06 14:52:00
10:10 AM,57.2,55.4,94,29.91,1.2,East,4.6,-,N/A,,Overcast,80,2013-06-06 15:10:00
10:24 AM,57.2,55.4,94,29.90,1.0,NE,3.5,-,N/A,,Overcast,40,2013-06-06 15:24:00
10:39 AM,59.0,57.2,94,29.90,2.0,NNE,3.5,-,0.00,,Overcast,30,2013-06-06 15:39:00
10:50 AM,59.0,57.2,94,29.90,3.0,NNE,3.5,-,0.00,,Overcast,20,2013-06-06 15:50:00
10:52 AM,59.0,55.9,90,29.90,4.0,NNE,3.5,-,0.00,,Overcast,20,2013-06-06 15:52:00
11:13 AM,60.8,57.2,88,29.89,6.0,NE,3.5,-,N/A,,Overcast,40,2013-06-06 16:13:00
11:52 AM,61.0,55.9,83,29.89,6.0,Variable,3.5,-,N/A,,Haze,0,2013-06-06 16:52:00
12:19 PM,60.8,55.4,82,29.90,7.0,Calm,Calm,-,N/A,,Overcast,0,2013-06-06 17:19:00
12:52 PM,63.0,57.0,81,29.90,6.0,NNE,3.5,-,N/A,,Haze,30,2013-06-06 17:52:00
1:18 PM,64.4,57.2,77,29.90,7.0,Calm,Calm,-,N/A,,Overcast,0,2013-06-06 18:18:00
1:26 PM,64.4,57.2,77,29.90,6.0,Variable,3.5,-,N/A,,Haze,0,2013-06-06 18:26:00
1:52 PM,64.0,57.0,78,29.90,7.0,Variable,4.6,-,N/A,,Overcast,0,2013-06-06 18:52:00
2:52 PM,64.9,57.0,75,29.89,7.0,ENE,3.5,-,N/A,,Overcast,70,2013-06-06 19:52:00
3:52 PM,66.0,57.0,73,29.88,8.0,North,3.5,-,N/A,,Overcast,360,2013-06-06 20:52:00
4:52 PM,66.0,57.0,73,29.89,9.0,NW,5.8,-,N/A,,Overcast,320,2013-06-06 21:52:00
5:39 PM,66.2,55.4,68,29.89,9.0,North,4.6,-,N/A,,Overcast,360,2013-06-06 22:39:00
5:52 PM,66.0,55.9,70,29.89,10.0,NNE,3.5,-,N/A,,Overcast,20,2013-06-06 22:52:00
6:52 PM,64.9,55.9,73,29.88,10.0,NNE,5.8,-,N/A,,Overcast,30,2013-06-06 23:52:00
7:52 PM,64.0,57.0,78,29.89,9.0,North,9.2,-,N/A,,Overcast,10,2013-06-07 00:52:00
8:52 PM,62.1,55.9,80,29.90,10.0,NNE,6.9,-,N/A,,Mostly Cloudy,20,2013-06-07 01:52:00
9:52 PM,62.1,55.9,80,29.92,10.0,ENE,9.2,-,N/A,,Overcast,60,2013-06-07 02:52:00
10:13 PM,60.8,55.4,82,29.93,10.0,ENE,8.1,-,N/A,,Overcast,60,2013-06-07 03:13:00
10:52 PM,60.1,55.0,83,29.93,8.0,NE,6.9,-,N/A,,Overcast,50,2013-06-07 03:52:00
11:03 PM,62.6,55.4,77,29.93,8.0,ENE,5.8,-,N/A,,Overcast,60,2013-06-07 04:03:00
11:32 PM,60.8,55.4,82,29.93,7.0,NE,5.8,-,N/A,,Overcast,40,2013-06-07 04:32:00
11:52 PM,60.1,55.0,83,29.93,7.0,NE,8.1,-,N/A,,Overcast,50,2013-06-07 04:52:00